Starlink 3696

operational
NORAD ID: 51965 Int'l Des: 2022-025 Owner: SPXS Country: US Constellation: starlink
LEOCIRCULARSTARLINK_TYPE

Über Starlink 3696

Beschreibung wird geladen...

Live-Position

3D-Globus wird geladen...

Nächste Überflüge

Höhenverlauf

Altitude vs Time

uPlot chart will show altitude changes over time

Zweizeiliger Elementsatz

1 51965U 22025K 25305.54656762 -.00000830 00000-0 -36841-4 0 9992
2 51965 53.0562 251.0999 0001432 96.5758 263.5394 15.06393959201537
Epoch: 1. Nov. 2025 • Age: 15 hours

Aktueller Status

Höhe 564.2 km
Geschwindigkeit 7.58 km/s
Subsatellitenpunkt -47.25°S, 12.46°E
Startdatum 9. März 2022
Alter 3.6 years
Typ internet

Technische Details

Klassifizierung Payload
Masse 297.00 kg
Trockenmasse 275.00 kg
Gesamtmasse 297.00 kg
Länge 0.20 m
Durchmesser 2.80 m
Spannweite 9.00 m
Form Box + pan
Hersteller SPXS
Bus-Typ Starlink
Phasenstatus In Orbit
Besitzer/Staat SPXS/US

Große Konstellationen

Loading constellations...